ASA7631 CYYC-KAFW

Flight info

Callsign ASA7631
Flight time N/A
Altitude 39000
Route DCT GADKI Q957 VOBUK DCT ANALE DCT BIL DCT DDY DCT LEWOY DCT KIISS DCT MMB DCT SPS DCT MOTZA WESAT3
Aircraft A333/H-SDE3GHIJ2J3J5M1RVWXY/LB2D1

Departure

Time N/A
Airport Calgary International Airport (CYYC)

Arrival

Time 2026-04-23 02:15
Airport Perot Field/Fort Worth Alliance Airport (KAFW)
Time Latitude Longitude Altitude Speed Heading
2026-04-23 00:26 43.71934 -106.79734 38568 ft 452 kts 154°
2026-04-23 00:27 43.66565 -106.75237 38551 ft 450 kts 154°
2026-04-23 00:27 43.61198 -106.70751 38552 ft 450 kts 154°
2026-04-23 00:28 43.55881 -106.66317 38558 ft 448 kts 154°
2026-04-23 00:28 43.50544 -106.61879 38560 ft 447 kts 154°
2026-04-23 00:29 43.45216 -106.57458 38567 ft 447 kts 154°
2026-04-23 00:29 43.39887 -106.53045 38563 ft 447 kts 154°
2026-04-23 00:30 43.34561 -106.48644 38575 ft 446 kts 154°
2026-04-23 00:30 43.29239 -106.44254 38588 ft 446 kts 154°
2026-04-23 00:31 43.23946 -106.39897 38613 ft 446 kts 154°
2026-04-23 00:31 43.18625 -106.35524 38653 ft 445 kts 154°
2026-04-23 00:32 43.13334 -106.31189 38672 ft 440 kts 154°
2026-04-23 00:32 43.08264 -106.26497 38694 ft 444 kts 146°
2026-04-23 00:33 43.03606 -106.20911 38699 ft 445 kts 143°
2026-04-23 00:33 42.99093 -106.15230 38701 ft 443 kts 142°
2026-04-23 00:34 42.94572 -106.09516 38674 ft 442 kts 142°
2026-04-23 00:34 42.90039 -106.03828 38657 ft 442 kts 143°
2026-04-23 00:35 42.85481 -105.98144 38637 ft 445 kts 143°
2026-04-23 00:35 42.80928 -105.92480 38618 ft 441 kts 143°
2026-04-23 00:36 42.76402 -105.86858 38629 ft 440 kts 143°
2026-04-23 00:36 42.71866 -105.81239 38610 ft 440 kts 143°
2026-04-23 00:37 42.67346 -105.75653 38642 ft 444 kts 143°
2026-04-23 00:37 42.62764 -105.69998 38649 ft 444 kts 143°
2026-04-23 00:38 42.58180 -105.64350 38652 ft 444 kts 143°
2026-04-23 00:38 42.53597 -105.58724 38624 ft 445 kts 144°
2026-04-23 00:39 42.49007 -105.53097 38627 ft 449 kts 144°
2026-04-23 00:39 42.44373 -105.47422 38596 ft 449 kts 144°
2026-04-23 00:40 42.39733 -105.41751 38601 ft 449 kts 144°
2026-04-23 00:40 42.35085 -105.36088 38600 ft 450 kts 144°
2026-04-23 00:41 42.30421 -105.30417 38596 ft 451 kts 143°
2026-04-23 00:41 42.25748 -105.24746 38597 ft 453 kts 144°
2026-04-23 00:42 42.21052 -105.19056 38560 ft 454 kts 144°
2026-04-23 00:42 42.16361 -105.13387 38589 ft 457 kts 144°
2026-04-23 00:43 42.11614 -105.07661 38587 ft 458 kts 144°
2026-04-23 00:43 42.06853 -105.01928 38582 ft 458 kts 144°
2026-04-23 00:44 42.02090 -104.96205 38657 ft 458 kts 145°
2026-04-23 00:44 41.97322 -104.90491 38661 ft 460 kts 146°
2026-04-23 00:45 41.92532 -104.84766 38645 ft 461 kts 146°
2026-04-23 00:45 41.87764 -104.79073 38619 ft 462 kts 146°
2026-04-23 00:46 41.82954 -104.73342 38597 ft 462 kts 146°
2026-04-23 00:46 41.78140 -104.67619 38566 ft 462 kts 146°
2026-04-23 00:47 41.73330 -104.61914 38536 ft 462 kts 146°
2026-04-23 00:47 41.68516 -104.56215 38535 ft 462 kts 146°
2026-04-23 00:48 41.63733 -104.50564 38530 ft 461 kts 146°
2026-04-23 00:48 41.58923 -104.44893 38518 ft 461 kts 146°
2026-04-23 00:49 41.54112 -104.39235 38514 ft 461 kts 146°
2026-04-23 00:49 41.49298 -104.33584 38491 ft 461 kts 147°
2026-04-23 00:50 41.44484 -104.27945 38499 ft 461 kts 147°
2026-04-23 00:50 41.39665 -104.22312 38494 ft 461 kts 147°
2026-04-23 00:51 41.35648 -104.17625 38495 ft 462 kts 147°
2026-04-23 00:51 41.30797 -104.11974 38493 ft 463 kts 147°
2026-04-23 00:52 41.25141 -104.05403 38538 ft 465 kts 147°
2026-04-23 00:52 41.21084 -104.00698 38562 ft 465 kts 147°
2026-04-23 00:53 41.16201 -103.95043 38588 ft 465 kts 147°
2026-04-23 00:53 41.11320 -103.89405 38593 ft 466 kts 147°
2026-04-23 00:54 41.06414 -103.83753 38600 ft 468 kts 147°
2026-04-23 00:54 41.01481 -103.78077 38595 ft 470 kts 147°
2026-04-23 00:55 40.96572 -103.72440 38572 ft 470 kts 147°
2026-04-23 00:55 40.91617 -103.66764 38548 ft 472 kts 147°
2026-04-23 00:56 40.86637 -103.61072 38501 ft 473 kts 147°
2026-04-23 00:56 40.81647 -103.55377 38478 ft 474 kts 147°
2026-04-23 00:57 40.76655 -103.49691 38512 ft 474 kts 147°
2026-04-23 00:57 40.71643 -103.43994 38549 ft 476 kts 146°
2026-04-23 00:58 40.66647 -103.38338 38585 ft 476 kts 149°
2026-04-23 00:58 40.61621 -103.32832 38588 ft 476 kts 149°
2026-04-23 00:59 40.56542 -103.27242 38570 ft 477 kts 149°
2026-04-23 00:59 40.51293 -103.22007 38576 ft 470 kts 156°
2026-04-23 01:00 40.45761 -103.17453 38551 ft 469 kts 158°
2026-04-23 01:00 40.40166 -103.13032 38504 ft 469 kts 158°
2026-04-23 01:01 40.34569 -103.08636 38471 ft 470 kts 158°
2026-04-23 01:01 40.28988 -103.04246 38487 ft 470 kts 158°
2026-04-23 01:02 40.23372 -102.99825 38500 ft 471 kts 158°
2026-04-23 01:02 40.17759 -102.95410 38483 ft 471 kts 158°
2026-04-23 01:03 40.12135 -102.90996 38504 ft 472 kts 159°
2026-04-23 01:03 40.06502 -102.86580 38503 ft 472 kts 158°
2026-04-23 01:04 40.00852 -102.82166 38509 ft 472 kts 159°
2026-04-23 01:04 39.92394 -102.75569 38511 ft 474 kts 158°
2026-04-23 01:05 39.86742 -102.71173 38511 ft 477 kts 158°
2026-04-23 01:05 39.81047 -102.66746 38519 ft 477 kts 159°
2026-04-23 01:06 39.75351 -102.62329 38516 ft 477 kts 159°
2026-04-23 01:06 39.69625 -102.57901 38523 ft 478 kts 158°
2026-04-23 01:07 39.63907 -102.53486 38525 ft 478 kts 159°
2026-04-23 01:07 39.58222 -102.49106 38530 ft 478 kts 159°
2026-04-23 01:08 39.52491 -102.44701 38542 ft 480 kts 159°
2026-04-23 01:08 39.46737 -102.40291 38534 ft 480 kts 158°
2026-04-23 01:09 39.41003 -102.35892 38548 ft 478 kts 158°
2026-04-23 01:09 39.35277 -102.31513 38660 ft 478 kts 158°
2026-04-23 01:10 39.29569 -102.27163 38683 ft 479 kts 157°
2026-04-23 01:10 39.23818 -102.22784 38683 ft 480 kts 158°
2026-04-23 01:11 39.18071 -102.18415 38567 ft 479 kts 158°
2026-04-23 01:11 39.12320 -102.14049 38569 ft 481 kts 157°
2026-04-23 01:12 39.06539 -102.09676 38566 ft 482 kts 157°
2026-04-23 01:12 39.00759 -102.05309 38568 ft 482 kts 158°
2026-04-23 01:13 38.94995 -102.00958 38544 ft 476 kts 156°
2026-04-23 01:13 38.89342 -101.96699 38564 ft 473 kts 156°
2026-04-23 01:14 38.83662 -101.92428 38562 ft 473 kts 156°
2026-04-23 01:14 38.77970 -101.88163 38562 ft 474 kts 156°
2026-04-23 01:15 38.72269 -101.83897 38556 ft 474 kts 156°
2026-04-23 01:15 38.66556 -101.79629 38559 ft 476 kts 156°
2026-04-23 01:16 38.60826 -101.75358 38558 ft 476 kts 156°
2026-04-23 01:16 38.55103 -101.71096 38564 ft 476 kts 156°
2026-04-23 01:17 38.49405 -101.66860 38552 ft 478 kts 155°
2026-04-23 01:17 38.43643 -101.62578 38559 ft 480 kts 155°
2026-04-23 01:18 38.37857 -101.58300 38573 ft 481 kts 155°
2026-04-23 01:18 38.32065 -101.54021 38554 ft 480 kts 155°
2026-04-23 01:19 38.26282 -101.49755 38570 ft 480 kts 155°
2026-04-23 01:19 38.20499 -101.45494 38581 ft 480 kts 155°
2026-04-23 01:20 38.14836 -101.40930 38585 ft 483 kts 150°
2026-04-23 01:20 38.09313 -101.36060 38571 ft 483 kts 149°
2026-04-23 01:21 38.03791 -101.31173 38589 ft 483 kts 150°
2026-04-23 01:21 37.98273 -101.26364 38598 ft 486 kts 151°
2026-04-23 01:22 37.92665 -101.21519 38603 ft 488 kts 151°
2026-04-23 01:22 37.87051 -101.16680 38605 ft 487 kts 151°
2026-04-23 01:23 37.81439 -101.11847 38619 ft 487 kts 151°
2026-04-23 01:23 37.75867 -101.07056 38625 ft 487 kts 151°
2026-04-23 01:24 37.70255 -101.02241 38624 ft 487 kts 151°
2026-04-23 01:24 37.64641 -100.97434 38638 ft 487 kts 151°
2026-04-23 01:25 37.59036 -100.92643 38629 ft 486 kts 151°
2026-04-23 01:25 37.53428 -100.87861 38636 ft 486 kts 151°
2026-04-23 01:26 37.47821 -100.83089 38660 ft 486 kts 151°
2026-04-23 01:26 37.42218 -100.78327 38656 ft 485 kts 150°
2026-04-23 01:27 37.36655 -100.73605 38667 ft 484 kts 150°
2026-04-23 01:27 37.31068 -100.68872 38683 ft 484 kts 150°
2026-04-23 01:28 37.25460 -100.64129 38689 ft 484 kts 150°
2026-04-23 01:28 37.19867 -100.59413 38687 ft 484 kts 150°
2026-04-23 01:29 37.14305 -100.54734 38697 ft 483 kts 151°
2026-04-23 01:29 37.08748 -100.50060 38695 ft 480 kts 151°
2026-04-23 01:30 37.03210 -100.45409 38692 ft 480 kts 151°
2026-04-23 01:30 36.97648 -100.40752 38709 ft 481 kts 151°
2026-04-23 01:31 36.92075 -100.36094 38705 ft 482 kts 151°
2026-04-23 01:31 36.86493 -100.31428 38709 ft 482 kts 151°
2026-04-23 01:32 36.80909 -100.26785 38717 ft 482 kts 151°
2026-04-23 01:32 36.75345 -100.22190 38712 ft 482 kts 152°
2026-04-23 01:33 36.69747 -100.17596 38723 ft 479 kts 152°
2026-04-23 01:33 36.64247 -100.13008 38722 ft 473 kts 152°
2026-04-23 01:34 36.58783 -100.08451 38735 ft 472 kts 151°
2026-04-23 01:34 36.53334 -100.03938 38738 ft 473 kts 152°
2026-04-23 01:35 36.47831 -99.99401 38756 ft 475 kts 152°
2026-04-23 01:35 36.42317 -99.94863 38771 ft 475 kts 151°
2026-04-23 01:36 36.36803 -99.90332 38782 ft 475 kts 152°
2026-04-23 01:36 36.31037 -99.86438 38779 ft 471 kts 160°
2026-04-23 01:37 36.25080 -99.83011 38787 ft 473 kts 161°
2026-04-23 01:37 36.19144 -99.79701 38782 ft 468 kts 161°
2026-04-23 01:38 36.13219 -99.76399 38781 ft 466 kts 161°
2026-04-23 01:38 36.07310 -99.73098 38771 ft 467 kts 161°
2026-04-23 01:39 36.01372 -99.69773 38776 ft 469 kts 161°
2026-04-23 01:39 35.95427 -99.66451 38797 ft 469 kts 161°
2026-04-23 01:40 35.90485 -99.63697 38793 ft 469 kts 161°
2026-04-23 01:40 35.84526 -99.60386 38788 ft 469 kts 161°
2026-04-23 01:41 35.78570 -99.57074 38792 ft 469 kts 159°
2026-04-23 01:41 35.72640 -99.53781 38805 ft 472 kts 161°
2026-04-23 01:42 35.66638 -99.50462 38825 ft 473 kts 161°
2026-04-23 01:42 35.60644 -99.47158 38832 ft 473 kts 161°
2026-04-23 01:43 35.54632 -99.43843 38834 ft 471 kts 161°
2026-04-23 01:43 35.48699 -99.40574 38840 ft 468 kts 161°
2026-04-23 01:44 35.42788 -99.37319 38864 ft 468 kts 161°
2026-04-23 01:44 35.36810 -99.34031 38871 ft 469 kts 161°
2026-04-23 01:45 35.30874 -99.30796 38864 ft 470 kts 162°
2026-04-23 01:45 35.24891 -99.27567 38874 ft 470 kts 161°
2026-04-23 01:46 35.18904 -99.24319 38856 ft 470 kts 161°
2026-04-23 01:46 35.12923 -99.21058 38862 ft 471 kts 161°
2026-04-23 01:47 35.06924 -99.17786 38875 ft 472 kts 161°
2026-04-23 01:47 35.00915 -99.14514 38878 ft 472 kts 161°
2026-04-23 01:48 34.94898 -99.11250 38879 ft 472 kts 161°
2026-04-23 01:48 34.88923 -99.08013 38870 ft 472 kts 161°
2026-04-23 01:49 34.82926 -99.04761 38868 ft 471 kts 161°
2026-04-23 01:49 34.76937 -99.01524 38862 ft 471 kts 161°
2026-04-23 01:50 34.70945 -98.98290 38840 ft 471 kts 161°
2026-04-23 01:50 34.64988 -98.95081 38835 ft 471 kts 161°
2026-04-23 01:51 34.58974 -98.91848 38839 ft 472 kts 161°
2026-04-23 01:51 34.55984 -98.90240 38627 ft 467 kts 161°
2026-04-23 01:51 34.52997 -98.88641 37811 ft 472 kts 161°
2026-04-23 01:52 34.49984 -98.87029 37163 ft 472 kts 161°
2026-04-23 01:52 34.47013 -98.85443 36557 ft 472 kts 161°
2026-04-23 01:52 34.44008 -98.83840 35949 ft 473 kts 161°
2026-04-23 01:52 34.40984 -98.82231 35264 ft 474 kts 161°
2026-04-23 01:53 34.37955 -98.80620 34541 ft 477 kts 161°
2026-04-23 01:53 34.34898 -98.78997 33792 ft 480 kts 161°
2026-04-23 01:53 34.31828 -98.77371 32948 ft 483 kts 161°
2026-04-23 01:53 34.28746 -98.75738 32155 ft 484 kts 161°
2026-04-23 01:54 34.25690 -98.74118 31347 ft 486 kts 161°
2026-04-23 01:54 34.22580 -98.72466 30509 ft 489 kts 161°
2026-04-23 01:54 34.19446 -98.70798 29598 ft 493 kts 160°
2026-04-23 01:54 34.16311 -98.69120 28957 ft 490 kts 160°
2026-04-23 01:55 34.13213 -98.67465 28407 ft 484 kts 160°
2026-04-23 01:55 34.10149 -98.65832 27808 ft 480 kts 160°
2026-04-23 01:55 34.07100 -98.64211 27234 ft 476 kts 160°
2026-04-23 01:55 34.04076 -98.62607 26638 ft 473 kts 160°
2026-04-23 01:56 34.01077 -98.61002 26134 ft 471 kts 158°
2026-04-23 01:56 33.98292 -98.58886 25857 ft 478 kts 144°
2026-04-23 01:56 33.95824 -98.56170 25840 ft 481 kts 138°
2026-04-23 01:56 33.93479 -98.53365 25888 ft 480 kts 137°
2026-04-23 01:57 33.91130 -98.50526 25484 ft 476 kts 137°
2026-04-23 01:57 33.88778 -98.47687 24510 ft 482 kts 137°
2026-04-23 01:57 33.86401 -98.44815 23675 ft 485 kts 137°
2026-04-23 01:57 33.84023 -98.41943 22902 ft 482 kts 137°
2026-04-23 01:58 33.81676 -98.39110 22272 ft 476 kts 137°
2026-04-23 01:58 33.79345 -98.36303 21608 ft 471 kts 137°
2026-04-23 01:58 33.77040 -98.33537 21002 ft 465 kts 137°
2026-04-23 01:58 33.74789 -98.30838 20396 ft 460 kts 137°
2026-04-23 01:59 33.72532 -98.28133 19776 ft 455 kts 137°
2026-04-23 01:59 33.70306 -98.25469 19196 ft 449 kts 137°
2026-04-23 01:59 33.68112 -98.22844 18430 ft 439 kts 137°
2026-04-23 01:59 33.65972 -98.20290 17140 ft 429 kts 137°
2026-04-23 02:00 33.63881 -98.17789 16314 ft 412 kts 138°
2026-04-23 02:00 33.61911 -98.15438 15848 ft 389 kts 138°
2026-04-23 02:00 33.60010 -98.13183 15324 ft 382 kts 139°
2026-04-23 02:00 33.58124 -98.10947 14786 ft 380 kts 139°
2026-04-23 02:01 33.56247 -98.08720 14257 ft 378 kts 138°
2026-04-23 02:01 33.54402 -98.06528 13713 ft 378 kts 139°
2026-04-23 02:01 33.52532 -98.04305 13147 ft 377 kts 139°
2026-04-23 02:01 33.50678 -98.02101 12611 ft 375 kts 138°
2026-04-23 02:02 33.48833 -97.99910 12080 ft 372 kts 139°
2026-04-23 02:02 33.46996 -97.97731 11558 ft 370 kts 139°
2026-04-23 02:02 33.45168 -97.95566 11009 ft 369 kts 138°
2026-04-23 02:02 33.43423 -97.93321 10496 ft 367 kts 131°
2026-04-23 02:03 33.42041 -97.90802 10263 ft 355 kts 123°
2026-04-23 02:03 33.40866 -97.88293 10140 ft 334 kts 122°
2026-04-23 02:03 33.39817 -97.85927 9903 ft 312 kts 120°
2026-04-23 02:03 33.38856 -97.83687 9670 ft 293 kts 121°
2026-04-23 02:04 33.37950 -97.81545 9414 ft 285 kts 120°
2026-04-23 02:04 33.37057 -97.79435 9100 ft 284 kts 121°
2026-04-23 02:04 33.36167 -97.77326 8793 ft 283 kts 121°
2026-04-23 02:04 33.35282 -97.75225 8476 ft 282 kts 121°
2026-04-23 02:05 33.34410 -97.73153 8162 ft 282 kts 121°
2026-04-23 02:05 33.33525 -97.71058 7837 ft 282 kts 122°
2026-04-23 02:05 33.32642 -97.68962 7529 ft 282 kts 122°
2026-04-23 02:05 33.31685 -97.66921 7246 ft 279 kts 136°
2026-04-23 02:06 33.30292 -97.65318 7218 ft 280 kts 144°
2026-04-23 02:06 33.28801 -97.63802 7179 ft 282 kts 146°
2026-04-23 02:06 33.27292 -97.62296 6891 ft 281 kts 146°
2026-04-23 02:06 33.25793 -97.60802 6540 ft 280 kts 143°
2026-04-23 02:07 33.24508 -97.59033 6087 ft 284 kts 127°
2026-04-23 02:07 33.23700 -97.56937 5649 ft 277 kts 116°
2026-04-23 02:07 33.23114 -97.54782 5152 ft 269 kts 113°
2026-04-23 02:07 33.22602 -97.52676 4794 ft 258 kts 112°
2026-04-23 02:08 33.22127 -97.50655 4460 ft 246 kts 112°
2026-04-23 02:08 33.21672 -97.48702 4157 ft 243 kts 112°
2026-04-23 02:08 33.21207 -97.46729 3843 ft 247 kts 112°
2026-04-23 02:08 33.20743 -97.44766 3536 ft 246 kts 112°
2026-04-23 02:09 33.20276 -97.42795 3245 ft 246 kts 113°
2026-04-23 02:09 33.19824 -97.40853 3052 ft 239 kts 112°
2026-04-23 02:09 33.19370 -97.38948 2994 ft 239 kts 115°
2026-04-23 02:09 33.18629 -97.37226 2994 ft 228 kts 138°
2026-04-23 02:10 33.17448 -97.36166 2979 ft 205 kts 155°
2026-04-23 02:10 33.16214 -97.35500 2981 ft 186 kts 163°
2026-04-23 02:10 33.15012 -97.35151 2987 ft 169 kts 172°
2026-04-23 02:10 33.13918 -97.34919 2981 ft 150 kts 173°
2026-04-23 02:11 33.12933 -97.34730 2988 ft 139 kts 172°
2026-04-23 02:11 33.12008 -97.34543 2948 ft 129 kts 171°
2026-04-23 02:11 33.11152 -97.34346 2786 ft 123 kts 171°
2026-04-23 02:11 33.10320 -97.34168 2624 ft 121 kts 171°
2026-04-23 02:12 33.09492 -97.34001 2466 ft 120 kts 168°
2026-04-23 02:12 33.08670 -97.33820 2281 ft 119 kts 167°
2026-04-23 02:12 33.07861 -97.33635 2104 ft 120 kts 167°
2026-04-23 02:12 33.07037 -97.33487 1986 ft 119 kts 168°
2026-04-23 02:13 33.06214 -97.33319 1821 ft 120 kts 167°
2026-04-23 02:13 33.05396 -97.33149 1687 ft 120 kts 168°
2026-04-23 02:13 33.04567 -97.32982 1527 ft 122 kts 167°
2026-04-23 02:13 33.03730 -97.32801 1395 ft 127 kts 166°
2026-04-23 02:14 33.02818 -97.32613 1203 ft 134 kts 171°
2026-04-23 02:14 33.01914 -97.32437 1014 ft 132 kts 167°
2026-04-23 02:14 33.00988 -97.32242 844 ft 136 kts 168°
2026-04-23 02:14 33.00074 -97.32061 696 ft 124 kts 166°
2026-04-23 02:15 32.98854 -97.31807 690 ft 70 kts 171°
2026-04-23 02:15 32.98613 -97.31758 685 ft 13 kts 175°
2026-04-23 02:15 32.98533 -97.31796 690 ft 12 kts 237°
2026-04-23 02:16 32.98516 -97.31888 690 ft 11 kts 258°
2026-04-23 02:16 32.98503 -97.31983 692 ft 12 kts 261°
2026-04-23 02:16 32.98524 -97.32072 685 ft 12 kts 329°
2026-04-23 02:16 32.98564 -97.32084 685 ft 0 kts 353°
2026-04-23 02:17 32.98573 -97.32085 690 ft 0 kts 353°
2026-04-23 02:17 32.98580 -97.32086 690 ft 2 kts 352°
2026-04-23 02:17 32.98600 -97.32090 688 ft 4 kts 348°
2026-04-23 02:18 32.98630 -97.32117 689 ft 6 kts 301°
2026-04-23 02:18 32.98632 -97.32163 690 ft 6 kts 261°
2026-04-23 02:18 32.98609 -97.32208 687 ft 8 kts 216°
2026-04-23 02:18 32.98549 -97.32211 687 ft 9 kts 168°
2026-04-23 02:19 32.98495 -97.32228 687 ft 8 kts 240°
2026-04-23 02:19 32.99973 -97.32040 687 ft 0 kts 167°